Weather History for KCKI - February, 2013

Change the Weather History Date:

Tuesday, February 12, 2013

  Actual Average (KFLO) Record (KFLO)
Temperature  
Mean Temperature 58 °F 48 °F  
Max Temperature 62 °F 59 °F 80 °F (1999)
Min Temperature 53 °F 37 °F 15 °F (1973)
Degree Days  
Heating Degree Days 8 17  
Month to date heating degree days 217  
Since 1 July heating degree days 1819  
Cooling Degree Days 0 0  
Month to date cooling degree days 0  
Year to date cooling degree days 2  
Growing Degree Days 8 (Base 50)    
Moisture  
Dew Point 56 °F    
Average Humidity 91    
Maximum Humidity 100    
Minimum Humidity 68    
Precipitation  
Precipitation 0.45 in 0.10 in 1.00 in (2004)
Month to date precipitation 1.21  
Year to date precipitation 4.44  
Sea Level Pressure  
Sea Level Pressure 30.02 in    
Wind  
Wind Speed 4 mph (WSW)    
Max Wind Speed 9 mph    
Max Gust Speed -    
Visibility 10 miles    
Events Rain    
T = Trace of Precipitation, MM = Missing Value Source: NWS Daily Summary

Daily Weather History Graph

Daily Weather History Graph

Search for Another Location

Airport or City:

Trip Planner

Search our weather history database for the weather conditions in past years. The results will help you decide how hot, cold, wet, or windy it might be!

Date:

Astronomy

Feb. 12, 2013 Rise Set
Actual Time 7:06 AM EST 6:01 PM EST
Civil Twilight 6:40 AM EST 6:26 PM EST
Nautical Twilight 6:11 AM EST 6:56 PM EST
Astronomical Twilight 5:42 AM EST 7:25 PM EST
Moon 8:12 AM EST (2/12) 8:48 PM EST (2/12)
Length of Visible Light 11h 45m
Length of Day
10h 54m
Waxing Crescent, 7% of the Moon is Illuminated
Feb 12
Waxing Crescent
Feb 17
First Quarter
Feb 25
Full
Mar 4
Last Quarter
Mar 11
New

Hourly Weather History & Observations

Time (EST) Temp. Dew Point Humidity Pressure Visibility Wind Dir Wind Speed Gust Speed Precip Events Conditions
12:15 AM 60.8 °F 60.8 °F 100% 30.04 in 7.0 mi SW 9.2 mph - 0.04 in Rain Rain
12:35 AM 60.8 °F 60.8 °F 100% 30.04 in 7.0 mi SW 6.9 mph - 0.08 in Rain Rain
12:55 AM 60.8 °F 60.8 °F 100% 30.04 in 10.0 mi SSW 6.9 mph - 0.11 in Rain Light Rain
1:15 AM 59.0 °F 59.0 °F 100% 30.07 in 10.0 mi WSW 6.9 mph - 0.02 in Rain Rain
1:35 AM 59.0 °F 59.0 °F 100% 30.07 in 10.0 mi WSW 8.1 mph - 0.04 in Rain Light Rain
2:15 AM 59.0 °F 59.0 °F 100% 30.04 in 7.0 mi SW 4.6 mph - 0.03 in Rain Rain
2:35 AM 59.0 °F 59.0 °F 100% 30.03 in 10.0 mi Calm Calm - 0.04 in Rain Light Rain
2:55 AM 59.0 °F 59.0 °F 100% 30.02 in 10.0 mi SSW 3.5 mph - 0.05 in Rain Light Rain
3:15 AM 59.0 °F 59.0 °F 100% 30.03 in 10.0 mi SW 5.8 mph - N/A   Clear
3:35 AM 59.0 °F 59.0 °F 100% 30.02 in 10.0 mi WSW 4.6 mph - N/A   Clear
3:55 AM 59.0 °F 59.0 °F 100% 30.04 in 10.0 mi WSW 4.6 mph - N/A Rain Light Rain
4:15 AM 59.0 °F 59.0 °F 100% 30.04 in 10.0 mi WSW 4.6 mph - 0.01 in Rain Rain
4:35 AM 59.0 °F 59.0 °F 100% 30.03 in 10.0 mi WSW 4.6 mph - 0.01 in   Light Drizzle
4:55 AM 59.0 °F 59.0 °F 100% 30.04 in 10.0 mi SW 3.5 mph - 0.01 in   Clear
5:15 AM 59.0 °F 59.0 °F 100% 30.04 in 10.0 mi SW 3.5 mph - 0.01 in Rain Rain
5:35 AM 59.0 °F 59.0 °F 100% 30.04 in 10.0 mi Calm Calm - 0.01 in   Clear
5:55 AM 59.0 °F 59.0 °F 100% 30.04 in 10.0 mi Calm Calm - 0.01 in   Clear
6:35 AM 57.2 °F 57.2 °F 100% 30.06 in 10.0 mi WNW 3.5 mph - N/A   Clear
6:55 AM 57.2 °F 57.2 °F 100% 30.06 in 10.0 mi Calm Calm - N/A   Clear
7:15 AM 57.2 °F 57.2 °F 100% 30.06 in 10.0 mi Calm Calm - N/A   Clear
7:35 AM 57.2 °F 57.2 °F 100% 30.05 in 10.0 mi Calm Calm - N/A Rain Light Rain
7:55 AM 57.2 °F 57.2 °F 100% 30.05 in 10.0 mi Calm Calm - N/A   Clear
8:15 AM 57.2 °F 57.2 °F 100% 30.06 in 10.0 mi Calm Calm - N/A   Clear
8:35 AM 57.2 °F 57.2 °F 100% 30.06 in 10.0 mi Calm Calm - N/A   Clear
8:55 AM 59.0 °F 59.0 °F 100% 30.08 in 10.0 mi WSW 3.5 mph - N/A Rain Light Rain
9:15 AM 57.2 °F 57.2 °F 100% 30.09 in 10.0 mi West 5.8 mph - 0.01 in Rain Light Rain
9:35 AM 57.2 °F 57.2 °F 100% 30.10 in 10.0 mi West 5.8 mph - 0.01 in Rain Light Rain
9:55 AM 57.2 °F 57.2 °F 100% 30.11 in 10.0 mi West 5.8 mph - 0.01 in Rain Rain
10:15 AM 55.4 °F 55.4 °F 100% 30.13 in 10.0 mi West 8.1 mph - N/A   Light Drizzle
10:35 AM 55.4 °F 55.4 °F 100% 30.13 in 10.0 mi West 5.8 mph - 0.01 in Rain Light Rain
11:15 AM 59.0 °F 59.0 °F 100% 30.09 in 10.0 mi WNW 3.5 mph - N/A   Clear
11:35 AM 59.0 °F 57.2 °F 94% 30.07 in 10.0 mi NW 3.5 mph - N/A   Clear
11:55 AM 60.8 °F 55.4 °F 82% 30.07 in 10.0 mi WSW 3.5 mph - N/A   Clear
12:15 PM 60.8 °F 53.6 °F 77% 30.06 in 10.0 mi Calm Calm - N/A   Clear
12:35 PM 60.8 °F 53.6 °F 77% 30.06 in 10.0 mi Calm Calm - N/A   Clear
12:55 PM 60.8 °F 53.6 °F 77% 30.06 in 10.0 mi Calm Calm - N/A   Clear
1:15 PM 62.6 °F 53.6 °F 72% 30.05 in 10.0 mi Calm Calm - N/A   Clear
1:35 PM 62.6 °F 53.6 °F 72% 30.03 in 10.0 mi Calm Calm - N/A   Clear
1:55 PM 62.6 °F 51.8 °F 68% 30.04 in 10.0 mi Calm Calm - N/A   Clear
2:15 PM 62.6 °F 53.6 °F 72% 30.02 in 10.0 mi Calm Calm - N/A   Clear
2:35 PM 62.6 °F 53.6 °F 72% 30.01 in 10.0 mi Calm Calm - N/A   Clear
2:55 PM 62.6 °F 53.6 °F 72% 30.00 in 10.0 mi Calm Calm - N/A   Clear
3:15 PM 62.6 °F 51.8 °F 68% 30.00 in 10.0 mi Calm Calm - N/A   Clear
3:35 PM 62.6 °F 51.8 °F 68% 30.00 in 10.0 mi West 3.5 mph - N/A   Clear
3:55 PM 62.6 °F 51.8 °F 68% 29.99 in 10.0 mi Calm Calm - N/A   Clear
4:15 PM 62.6 °F 51.8 °F 68% 29.96 in 10.0 mi Calm Calm - N/A   Clear
4:35 PM 62.6 °F 51.8 °F 68% 29.98 in 10.0 mi Calm Calm - N/A   Clear
4:55 PM 60.8 °F 53.6 °F 77% 30.00 in 10.0 mi Calm Calm - N/A   Clear
5:15 PM 60.8 °F 55.4 °F 82% 29.98 in 10.0 mi Calm Calm - N/A   Clear
5:35 PM 60.8 °F 55.4 °F 82% 29.97 in 10.0 mi NNE 3.5 mph - N/A   Clear
5:55 PM 59.0 °F 55.4 °F 88% 29.98 in 10.0 mi Calm Calm - N/A   Clear
6:15 PM 59.0 °F 55.4 °F 88% 29.98 in 10.0 mi Calm Calm - N/A   Clear
6:35 PM 59.0 °F 55.4 °F 88% 29.98 in 10.0 mi Calm Calm - N/A   Clear
7:15 PM 57.2 °F 57.2 °F 100% 29.99 in 10.0 mi Calm Calm - N/A   Clear
7:35 PM 57.2 °F 57.2 °F 100% 29.98 in 10.0 mi Calm Calm - N/A Rain Light Rain
7:55 PM 57.2 °F 55.4 °F 94% 29.94 in 10.0 mi ENE 5.8 mph - N/A   Light Drizzle
8:15 PM 59.0 °F 55.4 °F 88% 29.95 in 10.0 mi ESE 4.6 mph - N/A   Clear
8:35 PM 59.0 °F 55.4 °F 88% 29.96 in 10.0 mi ESE 5.8 mph - N/A Rain Light Rain
9:15 PM 55.4 °F 55.4 °F 100% 29.93 in 10.0 mi ESE 4.6 mph - 0.01 in Rain Light Rain
9:35 PM 55.4 °F 55.4 °F 100% 29.96 in 10.0 mi Calm Calm - 0.02 in Rain Rain
10:15 PM 55.4 °F 55.4 °F 100% 29.99 in 5.0 mi Calm Calm - 0.03 in Rain Rain
10:35 PM 55.4 °F 55.4 °F 100% 30.00 in 7.0 mi Calm Calm - 0.07 in Rain Rain
10:55 PM 53.6 °F 50.0 °F 88% 29.96 in 7.0 mi Calm Calm - 0.11 in Rain Rain
11:15 PM 53.6 °F 51.8 °F 94% 29.95 in 10.0 mi NNE 3.5 mph - 0.02 in Rain Rain
11:35 PM 53.6 °F 53.6 °F 100% 29.94 in 10.0 mi Calm Calm - 0.04 in Rain Rain
11:55 PM 53.6 °F 53.6 °F 100% 29.93 in 7.0 mi Calm Calm - 0.08 in Rain Rain